Skip Page Navigation
NASA JPL Caltech
NASA Logo - Jet Propulsion Laboratory + View the NASA Portal
+ Center for Near-Earth Object Studies
JPL Home Earth Solar System Stars & Galaxies Technology
JPL Solar System Dynamics
BODIES ORBITS EPHEMERIDES TOOLS PHYSICAL DATA DISCOVERY FAQ SITE MAP
JPL Small-Body Database Browser
Search: [ help ]  
43854 (1993 TO31)
Classification: Main-belt Asteroid          SPK-ID: 2043854
Ephemeris | Orbit Diagram | Orbital Elements | Mission Design | Physical Parameters | Discovery Circumstances ]

[ show orbit diagram ]
Orbital Elements at Epoch 2459396.5 (2021-Jul-01.0) TDB
Reference: JPL 39 (heliocentric ecliptic J2000)
 Element Value Uncertainty (1-sigma)   Units 
e .2059580471283106 3.0922e-08  
a 2.364554604049584 9.767e-09 au
q 1.877555555471276 7.435e-08 au
i 8.035066006104916 4.1722e-06 deg
node 47.74883134962063 2.5381e-05 deg
peri 267.1962153315825 2.8244e-05 deg
M 270.7919705683094 1.5764e-05 deg
tp 2459725.596977359402
(2022-May-26.09697736)
5.9299e-05 TDB
period 1328.074531005132
3.64
8.2286e-06
2.253e-08
d
yr
n .2710691242061088 1.6795e-09 deg/d
Q 2.851553652627892 1.1779e-08 au
  Orbit Determination Parameters
   # obs. used (total)      1808  
   data-arc span      10110 days (27.68 yr)  
   first obs. used      1993-10-09  
   last obs. used      2021-06-14  
   planetary ephem.      DE441  
   SB-pert. ephem.      SB441-N16  
   condition code      0  
   norm. resid. RMS      .49831  
   source      ORB  
   producer      Otto Matic  
   solution date      2021-Jul-08 07:40:48  

Additional Information
 Earth MOID = .884426 au 
 Jupiter MOID = 2.48 au 
 T_jup = 3.507 
[ show covariance matrix ]

Ephemeris | Orbit Diagram | Orbital Elements | Mission Design | Physical Parameters | Discovery Circumstances ]

Physical Parameter Table
Parameter Symbol Value Units Sigma Reference Notes
absolute magnitude H 14.38   n/a MPCxxxxx  
diameter diameter 3.579 km 0.126 urn:nasa:pds:neowise_diameters_albedos::2.0[mainbelt] (http://adsabs.harvard.edu/abs/2011ApJ...741...68M)  
geometric albedo albedo 0.457   0.073 urn:nasa:pds:neowise_diameters_albedos::2.0[mainbelt] (http://adsabs.harvard.edu/abs/2011ApJ...741...68M)  

43854 (1993 TO31)          Discovered 1993-Oct-09 by Elst, E. W. at La Silla
Reference: 20020822/Numbers.arcLast Updated: 2004-04-19

Alternate Designations
 1993 TO31 = 2000 SB357 
Ephemeris | Orbit Diagram | Orbital Elements | Mission Design | Physical Parameters | Discovery Circumstances ]
ABOUT SSD CREDITS/AWARDS PRIVACY/COPYRIGHT GLOSSARY LINKS
FirstGov 2021-Jul-23 18:40 UT
(server date/time)  
NASA Home Page
Site Manager:   Ryan S. Park
Webmaster  Alan B. Chamberlin